Regional Weather Roundup
Issued by NWS

Home | Current Version | Previous Version | Graphics & Text | Print | Product List | Glossary On
Versions: 1 2 3 4 5 6 7 8 9 10 11 12 13 14 15 16 17 18 19 20 21 22 23 24 25 26 27 28
000
ASUS45 KCYS 201910
RWRWY

WYOMING REGIONAL WEATHER ROUNDUP
NATIONAL WEATHER SERVICE CHEYENNE WY
100 PM MDT FRI APR 20 2018

NOTE:  "FAIR" INDICATES FEW OR NO CLOUDS BELOW 12,000 FEET
WITH NO SIGNIFICANT WEATHER AND/OR OBSTRUCTIONS TO VISIBILITY.

WYZ001-202000-
YELLOWSTONE NATIONAL PARK

CITY           SKY/WX    TMP DP  RH WIND       PRES   REMARKS
LK YELLOWSTONE   N/A     48  16  27 MISG      30.11F
W YELLOWSTONE  NOT AVBL

$$
WYZ002>013-054>058-071-098>099-202000-
NORTHERN WYOMING

CITY           SKY/WX    TMP DP  RH WIND       PRES   REMARKS
JACKSON        FAIR      56  20  24 N20G25    30.00F
CODY           FAIR      57  30  35 N24G32    30.03F
GREYBULL       FAIR      62  35  36 N12       29.96F
WORLAND        FAIR      59  35  40 N8        29.97F
SHERIDAN       FAIR      58  34  40 N12       30.06F
BUFFALO        FAIR      54  33  45 NE12      30.07S
GILLETTE       PTSUNNY   48  30  49 SE10      30.07F
HULETT         CLOUDY    48  32  53 N6        30.09F
NEWCASTLE      FAIR      52  27  37 SE17G31   30.10S

$$
WYZ014>020-022>026-101>103-202000-
CENTRAL WYOMING

CITY           SKY/WX    TMP DP  RH WIND       PRES   REMARKS
BIG PINEY      FAIR      58  22  24 E12       29.96S
PINEDALE       MOCLDY    55  18  22 NE14G20   29.97S
DUBOIS         FAIR      55  19  24 SE12G17   29.99F
LANDER         CLOUDY    55  30  38 NE21G26   29.97F
RIVERTON       FAIR      56  30  37 NE16G25   29.99S
CASPER         CLOUDY    41  37  86 N17       30.02F
DOUGLAS        PTSUNNY   47  31  53 SE16G22   30.03F

$$
WYZ021-027>030-104>119-202000-
SOUTHERN WYOMING

CITY           SKY/WX    TMP DP  RH WIND       PRES   REMARKS
EVANSTON       CLOUDY    41  32  70 E15       30.02F
KEMMERER       FAIR      43  32  65 SW9       30.02S
ROCK SPRINGS   CLOUDY    47  21  35 NE22G33   29.95F
DIXON          CLOUDY    47  35  62 S10       29.89F
RAWLINS        CLOUDY    42  29  59 NE16      29.95R
SARATOGA       FAIR      48  27  43 N15G24    29.88F
LARAMIE        FAIR      45  27  49 SE18G24   29.91F
CHEYENNE       PTSUNNY   48  31  51 SE17G28   29.95S
TORRINGTON     CLOUDY    43  33  68 SE24G31   30.04R
PINE BLUFFS    CLOUDY    41  32  70 MISG      30.00F

$$




USA.gov is the U.S. government's official web portal to all federal, state and local government web resources and services.